Weather History for Cincinnati, OH

Change the Weather History Date:

Tuesday, June 25, 2013

  Actual Average Record
Temperature  
Mean Temperature 78 °F -  
Max Temperature 90 °F 84 °F 101 °F (1988)
Min Temperature 66 °F 63 °F 46 °F (1972)
Cooling Degree Days 12    
Growing Degree Days 28 (Base 50)    
Moisture  
Dew Point 70 °F    
Average Humidity 78    
Maximum Humidity 100    
Minimum Humidity 55    
Precipitation  
Precipitation 0.00 in - - ()
Sea Level Pressure  
Sea Level Pressure 30.00 in    
Wind  
Wind Speed 6 mph (SSW)    
Max Wind Speed 13 mph    
Max Gust Speed 18 mph    
Visibility 9 miles    
Events      
Averages and records for this station are not official NWS values.
T = Trace of Precipitation, MM = Missing Value Source: NWS Daily Summary

Daily Weather History Graph

Daily Weather History Graph

Search for Another Location

Airport:

Trip Planner

Search our weather history database for the weather conditions in past years. The results will help you decide how hot, cold, wet, or windy it might be!

Date:

Astronomy

Jun. 25, 2013 Rise Set
Actual Time 6:13 AM EDT 9:07 PM EDT
Civil Twilight 5:40 AM EDT 9:39 PM EDT
Nautical Twilight 5:00 AM EDT 10:20 PM EDT
Astronomical Twilight 4:13 AM EDT 11:07 PM EDT
Moon 10:54 PM EDT (6/25) 8:50 AM EDT (6/25)
Length of Visible Light 15h 59m
Length of Day
14h 54m
Waning Gibbous, 93% of the Moon is Illuminated
Jun 25
Waning Gibbous
Jun 30
Last Quarter
Jul 8
New
Jul 15
First Quarter
Jul 22
Full

Hourly Weather History & Observations

Time (EDT) Temp. Heat Index Dew Point Humidity Pressure Visibility Wind Dir Wind Speed Gust Speed Precip Events Conditions
12:53 AM 70.0 °F - 66.9 °F 90% 30.06 in 10.0 mi SW 4.6 mph - N/A   Clear
1:53 AM 68.0 °F - 66.9 °F 96% 30.07 in 10.0 mi South 4.6 mph - N/A   Mostly Cloudy
2:03 AM 68.0 °F - 66.2 °F 94% 30.08 in 10.0 mi South 6.9 mph - N/A   Scattered Clouds
2:53 AM 69.1 °F - 68.0 °F 96% 30.05 in 8.0 mi South 6.9 mph - N/A   Clear
3:27 AM 69.8 °F - 68.0 °F 94% 30.04 in 7.0 mi South 8.1 mph - N/A   Scattered Clouds
3:53 AM 69.1 °F - 68.0 °F 96% 30.04 in 7.0 mi South 3.5 mph - N/A   Partly Cloudy
4:53 AM 66.9 °F - 66.9 °F 100% 30.04 in 6.0 mi SSW 3.5 mph - N/A   Clear
5:53 AM 66.9 °F - 66.9 °F 100% 30.05 in 5.0 mi ESE 3.5 mph - N/A   Clear
6:53 AM 66.9 °F - 66.9 °F 100% 30.06 in 5.0 mi Calm Calm - N/A   Clear
7:53 AM 70.0 °F - 69.1 °F 97% 30.07 in 5.0 mi Calm Calm - N/A   Clear
8:53 AM 73.9 °F - 70.0 °F 87% 30.06 in 9.0 mi South 6.9 mph - N/A   Clear
9:53 AM 78.1 °F - 71.1 °F 79% 30.05 in 10.0 mi South 5.8 mph - N/A   Clear
10:53 AM 82.0 °F 87.4 °F 73.0 °F 74% 30.04 in 10.0 mi SSE 6.9 mph - N/A   Clear
11:53 AM 86.0 °F 93.8 °F 73.9 °F 67% 30.04 in 10.0 mi SSW 6.9 mph - N/A   Partly Cloudy
12:53 PM 86.0 °F 92.2 °F 72.0 °F 63% 30.03 in 10.0 mi WSW 8.1 mph 16.1 mph N/A   Partly Cloudy
1:53 PM 89.1 °F 97.0 °F 73.0 °F 59% 30.01 in 10.0 mi SW 8.1 mph 18.4 mph N/A   Mostly Cloudy
2:53 PM 89.1 °F 96.0 °F 72.0 °F 57% 29.98 in 10.0 mi WNW 6.9 mph - N/A   Clear
3:53 PM 89.1 °F 96.0 °F 72.0 °F 57% 29.96 in 10.0 mi SW 10.4 mph - N/A   Mostly Cloudy
4:53 PM 88.0 °F 93.8 °F 71.1 °F 57% 29.94 in 10.0 mi SSW 12.7 mph - N/A   Scattered Clouds
5:53 PM 89.1 °F 96.0 °F 72.0 °F 57% 29.93 in 10.0 mi SSW 11.5 mph 18.4 mph N/A   Partly Cloudy
6:53 PM 88.0 °F 92.9 °F 70.0 °F 55% 29.91 in 10.0 mi SSW 9.2 mph - N/A   Clear
7:53 PM 86.0 °F 90.7 °F 70.0 °F 59% 29.89 in 10.0 mi SSW 10.4 mph - N/A   Clear
8:53 PM 82.0 °F 86.7 °F 72.0 °F 71% 29.90 in 8.0 mi SSW 8.1 mph - N/A   Clear
9:53 PM 81.0 °F 85.2 °F 72.0 °F 74% 29.92 in 10.0 mi SW 8.1 mph - N/A   Clear
10:53 PM 80.1 °F 83.8 °F 72.0 °F 76% 29.91 in 10.0 mi SSW 9.2 mph - N/A   Clear
11:53 PM 79.0 °F - 72.0 °F 79% 29.92 in 10.0 mi SW 9.2 mph - N/A   Clear